Regional Weather Roundup
Issued by NWS

Home | Current Version | Previous Version | Graphics & Text | Print | Product List | Glossary Off
Versions: 1 2 3 4 5 6 7 8 9 10 11 12 13 14 15 16 17 18 19 20 21 22 23 24 25 26 27 28 29 30 31 32 33 34 35 36 37 38 39 40 41 42 43 44 45 46 47 48 49 50

000
ASUS43 KOAX 270610
RWRNE

WEATHER ROUNDUP FOR NEBRASKA
NATIONAL WEATHER SERVICE OMAHA NE
100 AM CDT FRI MAR 27 2015

NOTES: SATELLITE DATA IS BEING USED TO AUGMENT CLOUD COVER ABOVE
       12000 FEET.
       "FAIR" INDICATES FEW OR NO CLOUDS BELOW 12,000 FEET WITH NO
       SIGNIFICANT WEATHER AND/OR OBSTRUCTIONS TO VISIBILITY.

  * THESE STATIONS DO NOT REPORT WEATHER SUCH AS RAIN...SNOW OR FOG.

NEZ001>004-019>022-054>056-270700-
NEBRASKA PANHANDLE

CITY           SKY/WX    TMP DP  RH WIND       PRES   REMARKS
SCOTTSBLUFF    MOCLDY    41  32  70 E5        30.16R
6HR MIN TEMP:  40; 6HR MAX TEMP:  53; 6HR PCP: TRACE;

ALLIANCE       FLURRIES  37  28  70 SE5       30.17R WCI  33
6HR MIN TEMP:  37; 6HR MAX TEMP:  50; 6HR PCP: TRACE;

CHADRON        LGT RAIN  39  31  72 SE5       30.17R
6HR MIN TEMP:  39; 6HR MAX TEMP:  49; 6HR PCP:  0.01;

KIMBALL        CLOUDY    39  32  73 SW3       30.14F
SIDNEY         CLOUDY    39  30  70 SE8       30.17S WCI  33
6HR MIN TEMP:  39; 6HR MAX TEMP:  52;

$$

NEZ057>060-069>072-079>082-270700-
SOUTHWEST NEBRASKA

CITY           SKY/WX    TMP DP  RH WIND       PRES   REMARKS
NORTH PLATTE   CLOUDY    33  27  78 E7        30.20S WCI  27
6HR MIN TEMP:  33; 6HR MAX TEMP:  50;

IMPERIAL         N/A     37  28  70 E7        30.20R WCI  32
6HR MIN TEMP:  37; 6HR MAX TEMP:  54;

LEXINGTON      CLOUDY    33  28  79 NE13      30.22S WCI  24
MCCOOK         CLOUDY    35  28  75 E5        30.23R WCI  31
6HR MIN TEMP:  35; 6HR MAX TEMP:  59;

OGALLALA       CLOUDY    36  29  78 E9        30.19R WCI  29
$$

NEZ005>010-023>029-035>040-094-270700-
NORTH CENTRAL NEBRASKA

CITY           SKY/WX    TMP DP  RH WIND       PRES   REMARKS
VALENTINE      CLOUDY    31  25  78 CALM      30.22S
6HR MIN TEMP:  31; 6HR MAX TEMP:  35;

AINSWORTH      CLOUDY    31  27  86 CALM      30.22S
BROKEN BOW     CLOUDY    33  26  75 NE8       30.22S WCI  26
6HR MIN TEMP:  32; 6HR MAX TEMP:  40;

O`NEILL        CLOUDY    32  29  90 N7        30.23F WCI  26
ORD            MOCLDY    29  24  82 N3        30.22S
6HR MIN TEMP:  29; 6HR MAX TEMP:  36;

THEDFORD       CLOUDY    32  29  89 CALM      30.21F
$$

NEZ041-046>049-061>064-073>077-083>087-270700-
SOUTH CENTRAL NEBRASKA

CITY           SKY/WX    TMP DP  RH WIND       PRES   REMARKS
GRAND ISLAND   PTCLDY    28  24  85 N6        30.24S WCI  22
6HR MIN TEMP:  27; 6HR MAX TEMP:  37;

AURORA         PTCLDY    29  29  99 N7        30.22S WCI  22
HASTINGS       PTCLDY    30  26  85 N7        30.22S WCI  23
6HR MIN TEMP:  30; 6HR MAX TEMP:  42;

HEBRON         PTCLDY    33  29  86 N7        30.23R WCI  27
HOLDREGE       CLOUDY    33  28  81 NE13      30.21F WCI  23
KEARNEY *      CLOUDY    34  25  69 NE15      30.23S WCI  24
YORK           PTCLDY    30  28  93 N6        30.22S WCI  24
$$

NEZ011>018-030>034-042>045-270700-
NORTHEAST NEBRASKA

CITY           SKY/WX    TMP DP  RH WIND       PRES   REMARKS
NORFOLK        PTCLDY    31  26  82 N13       30.23R WCI  21
6HR MIN TEMP:  30; 6HR MAX TEMP:  35;

ALBION         MOCLDY    29  26  87 NW3       30.23S
BLAIR          PTCLDY    33  29  87 N9        30.20S WCI  25
COLUMBUS *     CLEAR     30  21  69 NW9       30.24S WCI  22
FREMONT        CLEAR     32  30  92 N6        30.23R WCI  26
TEKAMAH        CLOUDY    30  24  78 NW10G25   30.25R WCI  21
6HR MIN TEMP:  29; 6HR MAX TEMP:  37; 6HR PCP: TRACE;

WAYNE          CLOUDY    27  22  82 N6        30.26R WCI  20
$$

NEZ050>053-065>068-078-088>093-270700-
SOUTHEAST NEBRASKA

CITY           SKY/WX    TMP DP  RH WIND       PRES   REMARKS
LINCOLN        CLEAR     32  30  92 NW7       30.23S WCI  26
6HR MIN TEMP:  32; 6HR MAX TEMP:  35; 6HR PCP:  0.02;

OMAHA EPPLEY   PTCLDY    32  29  88 N9        30.22R WCI  24
6HR MIN TEMP:  30; 6HR MAX TEMP:  36; 6HR PCP: TRACE;

BEATRICE       CLEAR     32  30  93 N7        30.21S WCI  26
FALLS CITY     MOCLDY    34  31  88 N7        30.19S WCI  28
6HR MIN TEMP:  34; 6HR MAX TEMP:  45; 6HR PCP:  0.05;

NEBRASKA CITY  CLEAR     32  32 100 N7        30.20S FOG     WCI  25
PLATTSMOUTH    CLEAR     30  28  91 NW6       30.20S WCI  24
$$

NEZ044-045-051>053-067-270700-
OMAHA AREA

CITY           SKY/WX    TMP DP  RH WIND       PRES   REMARKS
OMAHA EPPLEY   PTCLDY    32  29  88 N9        30.22R WCI  24
6HR MIN TEMP:  30; 6HR MAX TEMP:  36; 6HR PCP: TRACE;

BLAIR          PTCLDY    33  29  87 N9        30.20S WCI  25
FREMONT        CLEAR     32  30  92 N6        30.23R WCI  26
MILLARD        MOCLDY    33  30  89 N5        30.22R WCI  29
OFFUTT AFB     CLEAR     28  26  92 N5        30.21R WCI  23
PLATTSMOUTH    CLEAR     30  28  91 NW6       30.20S WCI  24
WAHOO          FAIR      31  28  87 N7        30.22S WCI  24
$$


USA.gov is the U.S. government's official web portal to all federal, state and local government web resources and services.